Weather Roundup
Issued by NWS Springfield, MO

Home | Current Version | Previous Version | Text Only | Print | Product List | Glossary On
Versions: 1 2 3 4 5 6 7 8 9 10 11 12 13 14 15 16 17 18 19 20 21 22 23 24 25 26 27 28 29 30 31 32 33 34 35 36 37 38 39 40 41 42 43 44 45 46 47 48 49 50
000
NZUS99 KSGF 011807
HRRSGF

HOURLY WEATHER
NATIONAL WEATHER SERVICE SPRINGFIELD MO
1200 PM CST WED MAR 01 2017

......SGF CWA......

CITY           SKY/WX    TMP DP  RH WIND       PRES   REMARKS
SPRINGFIELD    SUNNY     49  28  44 NW16G28   30.09R
6HR MIN TEMP:  40; 6HR MAX TEMP:  49;

JOPLIN         SUNNY     51  31  46 NW16      30.16R
6HR MIN TEMP:  37; 6HR MAX TEMP:  51;

WEST PLAINS    SUNNY     55  26  32 NW20G29   30.03R
6HR MIN TEMP:  47; 6HR MAX TEMP:  55;

ROLLA          LGT RAIN  49  32  52 NW22G31   29.99R
6HR MIN TEMP:  42; 6HR MAX TEMP:  49; 6HR PCP: TRACE;

OSAGE BEACH    PTSUNNY   48  32  53 W17G25    30.05R
BRANSON        SUNNY     50  27  40 W12G22    30.11R

......SURROUNDING SGF CWA......

CITY           SKY/WX    TMP DP  RH WIND       PRES   REMARKS
CHANUTE        SUNNY     51  25  36 NW20G25   30.17R
PARSONS        SUNNY     52  25  35 W13       30.20R
COFFEYVILLE    SUNNY     53  25  33 NW16G24   30.20R
EMPORIA        SUNNY     48  23  37 W18G31    30.17R
GROVE OK       SUNNY     52  28  40 NW10G24   30.20R
ROGERS AR      SUNNY     51  25  36 NW14G24   30.15R
SILOAM SPRINGS SUNNY     54  23  30 NW18G29   30.17R
HARRISON AR    SUNNY     53  22  29 W20G33    30.09R
NEAR YELLVILLE SUNNY     57  27  30 W18G25    30.06R

......KANSAS AND MISSOURI......

CITY           SKY/WX    TMP DP  RH WIND       PRES   REMARKS
KANSAS CTY INT MOSUNNY   46  27  47 NW17G26   30.09R
DOWNTOWN KC    SUNNY     49  27  42 W16G28    30.09R
COLUMBIA       PTSUNNY   43  31  62 W25G38    30.01R
SEDALIA        MOSUNNY   47  34  60 W18G29    30.06R
ST JOSEPH      PTSUNNY   44  29  55 NW18G30   30.10R
ST LOUIS       PTSUNNY   50  32  50 W26G46    29.93R
SPIRIT OF STL  PTSUNNY   49  34  56 NW22G35   29.93R
KIRKSVILLE     CLOUDY    40  31  70 NW24G33   29.98R WCI  29
WICHITA        SUNNY     51  18  27 NW14      30.22R
TOPEKA         SUNNY     48  26  42 NW18G24   30.14R
OLATHE         SUNNY     46  26  45 NW21G28   30.11R

......TENNESSEE......

CITY           SKY/WX    TMP DP  RH WIND       PRES   REMARKS
MEMPHIS        PTSUNNY   63  51  65 NW12      29.96R
NASHVILLE      PTSUNNY   65  59  81 SW9G17    29.81F

......ARKANSAS.......

CITY           SKY/WX    TMP DP  RH WIND       PRES   REMARKS
FAYETTEVILLE   SUNNY     53  21  28 NW21G28   30.16R
FT SMITH       SUNNY     60  18  19 N15       30.16S
LITTLE ROCK    MOSUNNY   63  38  39 NW18G26   30.05R

......OKLAHOMA.......

CITY           SKY/WX    TMP DP  RH WIND       PRES   REMARKS
TULSA          SUNNY     57  19  22 NW14      30.20S
PONCA CITY     SUNNY     52  18  26 NW12G23   30.24R
MCALESTER      MOSUNNY   58  20  22 N18       30.22R
OKLAHOMA CITY  MOSUNNY   56  11  16 N25       30.26R

......IOWA............

CITY           SKY/WX    TMP DP  RH WIND       PRES   REMARKS
DES MOINES     CLOUDY    38  29  70 NW22G28   29.98R WCI  27
QUAD CITIES    CLOUDY    38  31  76 W20       29.77R WCI  28

......ILLINOIS........

CITY           SKY/WX    TMP DP  RH WIND       PRES   REMARKS
QUINCY         CLOUDY    41  32  70 W22G40    29.92R
CHICAGO        CLOUDY    41  35  79 W18G25    29.59R



USA.gov is the U.S. government's official web portal to all federal, state and local government web resources and services.